This is the latest recevied weather packets stored in our database for station/object KD4MBW. If no packets are shown the sender has not sent any weather packets the latest 10 day(s).
| Time | Temp. | Humidity | Pressure | Rain* | Wind** | Luminosity | Snow |
|---|---|---|---|---|---|---|---|
| 1787881244 | 22.78° C | 99% | 1015 hPa | 0 mm | - | 0 W/m² | - |
| 1787880939 | 22.78° C | 99% | 1014.9 hPa | 0 mm | - | 0 W/m² | - |
| 1787880639 | 23.33° C | 99% | 1015 hPa | 0 mm | - | 0 W/m² | - |
| 1787880337 | 23.33° C | 99% | 1014.6 hPa | 0 mm | - | 0 W/m² | - |
| 1787880033 | 23.33° C | 99% | 1015 hPa | 0 mm | - | 0 W/m² | - |
| 1787879727 | 23.33° C | 99% | 1014.7 hPa | 0 mm | - | 0 W/m² | - |
| 1787879422 | 23.33° C | 99% | 1014.6 hPa | 0 mm | - | 0 W/m² | - |
| 1787879119 | 23.33° C | 99% | 1014.6 hPa | 0 mm | - | 0 W/m² | - |
| 1787878815 | 23.33° C | 99% | 1014.8 hPa | 0 mm | - | 0 W/m² | - |
| 1787878514 | 23.33° C | 99% | 1014.5 hPa | 0 mm | - | 0 W/m² | - |
| 1787878210 | 23.33° C | 99% | 1014.7 hPa | 0 mm | - | 0 W/m² | - |
| 1787877905 | 23.33° C | 99% | 1014.4 hPa | 0 mm | - | 0 W/m² | - |
| 1787877601 | 23.33° C | 99% | 1014.4 hPa | 0 mm | - | 0 W/m² | - |
| 1787877296 | 23.33° C | 99% | 1014.2 hPa | 0 mm | - | 0 W/m² | - |
| 1787876995 | 23.33° C | 99% | 1014.3 hPa | 0 mm | - | 0 W/m² | - |
| 1787876691 | 23.33° C | 99% | 1014.2 hPa | 0 mm | - | 0 W/m² | - |
| 1787876385 | 23.33° C | 99% | 1014.2 hPa | 0 mm | - | 1 W/m² | - |
| 1787876079 | 23.33° C | 99% | 1013.9 hPa | 0 mm | - | 1 W/m² | - |
| 1787875774 | 23.33° C | 99% | 1014 hPa | 0 mm | - | 5 W/m² | - |
| 1787875473 | 23.33° C | 99% | 1014.1 hPa | 0 mm | - | 8 W/m² | - |
| 1787875172 | 23.33° C | 99% | 1014.1 hPa | 0 mm | - | 12 W/m² | - |
| 1787874867 | 23.33° C | 99% | 1014.2 hPa | 0 mm | - | 18 W/m² | - |
| 1787874566 | 23.33° C | 99% | 1014.4 hPa | 0 mm | - | 25 W/m² | - |
| 1787874261 | 23.33° C | 99% | 1014.7 hPa | 0 mm | - | 34 W/m² | - |
| 1787873955 | 23.33° C | 99% | 1014.5 hPa | 0 mm | - | 41 W/m² | - |
* Rain latest hour (hover to see other rain measurements)
** Current wind speed in m/s (hover to see current wind gust speed)